DW8749 Weather Reports


Display with metric or nautical units.
time (UTC)temp
F
wind
direction
speed
MPH
gust
MPH
rain 1hr
in
rain 24hr
in
rain mn
in
humidity
%
barometer
mb
20260902095508 77 360 8.0 15.0 0.00 0.00 0.00 50 1014.1
20260902095011 77 360 7.0 12.0 0.00 0.00 0.00 50 1014.1
20260902094521 77 360 6.0 12.0 0.00 0.00 0.00 50 1014.0
20260902094013 77 360 5.0 13.0 0.00 0.00 0.00 50 1014.0
20260902093518 77 205 7.0 13.0 0.00 0.00 0.00 50 1014.1
20260902093030 77 360 6.0 13.0 0.00 0.00 0.00 50 1014.1
20260902092514 77 360 5.0 11.0 0.00 0.00 0.00 50 1014.1
20260902092021 77 221 5.0 11.0 0.00 0.00 0.00 50 1014.0
20260902091533 77 204 5.0 12.0 0.00 0.00 0.00 50 1014.0
20260902091017 77 360 6.0 12.0 0.00 0.00 0.00 50 1014.1
20260902090507 77 360 5.0 11.0 0.00 0.00 0.00 50 1014.1
20260902090018 77 207 5.0 10.0 0.00 0.00 0.00 50 1014.1
20260902085510 77 192 4.0 10.0 0.00 0.00 0.00 50 1014.0
20260902085012 77 360 7.0 10.0 0.00 0.00 0.00 50 1014.1
20260902084523 77 172 5.0 11.0 0.00 0.00 0.00 50 1014.1
20260902084016 77 360 5.0 11.0 0.00 0.00 0.00 50 1014.1
20260902083515 77 192 4.0 8.0 0.00 0.00 0.00 49 1014.0
20260902083029 78 180 4.0 9.0 0.00 0.00 0.00 49 1014.1
20260902082515 78 192 4.0 9.0 0.00 0.00 0.00 48 1014.0
20260902082018 78 360 4.0 8.0 0.00 0.00 0.00 48 1013.9
20260902081531 78 360 4.0 8.0 0.00 0.00 0.00 48 1014.0
20260902081017 78 151 4.0 8.0 0.00 0.00 0.00 48 1013.9
20260902080511 78 189 4.0 11.0 0.00 0.00 0.00 47 1013.9
20260902080019 78 154 4.0 11.0 0.00 0.00 0.00 47 1014.0
20260902075511 78 138 4.0 10.0 0.00 0.00 0.00 47 1013.9
20260902075014 79 360 5.0 10.0 0.00 0.00 0.00 47 1013.8
20260902074527 79 178 6.0 11.0 0.00 0.00 0.00 47 1014.0
20260902074016 79 360 5.0 11.0 0.00 0.00 0.00 47 1013.8
20260902073517 79 360 5.0 9.0 0.00 0.00 0.00 47 1013.8
20260902073033 79 196 4.0 8.0 0.00 0.00 0.00 47 1013.8
20260902072515 79 127 4.0 8.0 0.00 0.00 0.00 46 1013.8
20260902072017 80 360 4.0 9.0 0.00 0.00 0.00 46 1013.7
20260902071532 80 209 4.0 9.0 0.00 0.00 0.00 45 1013.7
20260902071011 80 200 4.0 11.0 0.00 0.00 0.00 45 1013.8
20260902070512 80 360 5.0 11.0 0.00 0.00 0.00 44 1013.7
20260902070021 81 154 4.0 11.0 0.00 0.00 0.00 44 1013.8
20260902065513 81 157 5.0 12.0 0.00 0.00 0.00 44 1013.8
20260902065016 81 360 5.0 13.0 0.00 0.00 0.00 44 1013.8
20260902064528 81 360 5.0 13.0 0.00 0.00 0.00 43 1013.8
20260902064017 82 181 6.0 14.0 0.00 0.00 0.00 43 1013.8
20260902063518 82 206 7.0 14.0 0.00 0.00 0.00 43 1013.8
20260902063041 82 360 7.0 13.0 0.00 0.00 0.00 43 1013.9
20260902062520 82 229 6.0 11.0 0.00 0.00 0.00 42 1013.9
20260902062019 82 178 5.0 11.0 0.00 0.00 0.00 42 1013.9
20260902061522 82 201 5.0 10.0 0.00 0.00 0.00 42 1013.8
20260902061013 83 189 5.0 12.0 0.00 0.00 0.00 42 1013.8
20260902060511 83 172 6.0 13.0 0.00 0.00 0.00 41 1013.8
20260902060025 83 360 7.0 13.0 0.00 0.00 0.00 41 1013.7
20260902055514 83 360 6.0 13.0 0.00 0.00 0.00 41 1013.7
20260902055019 83 360 6.0 13.0 0.00 0.00 0.00 41 1013.7
20260902054506 83 360 5.0 13.0 0.00 0.00 0.00 41 1013.7
20260902054005 83 198 7.0 11.0 0.00 0.00 0.00 41 1013.6
20260902053506 83 159 6.0 12.0 0.00 0.00 0.00 41 1013.7
20260902053014 84 360 5.0 12.0 0.00 0.00 0.00 41 1013.7
20260902052510 84 360 5.0 11.0 0.00 0.00 0.00 40 1013.7
20260902052009 84 360 5.0 12.0 0.00 0.00 0.00 40 1013.7
20260902051523 84 194 6.0 12.0 0.00 0.00 0.00 40 1013.7
20260902051015 84 360 6.0 12.0 0.00 0.00 0.00 40 1013.7
20260902050516 84 167 6.0 14.0 0.00 0.00 0.00 40 1013.7
20260902050012 85 155 7.0 14.0 0.00 0.00 0.00 40 1013.6
20260902045505 85 162 7.0 13.0 0.00 0.00 0.00 40 1013.6
20260902045005 85 163 7.0 13.0 0.00 0.00 0.00 39 1013.5
20260902044510 85 204 8.0 13.0 0.00 0.00 0.00 39 1013.6
20260902044006 85 360 6.0 13.0 0.00 0.00 0.00 39 1013.5
20260902043508 85 182 6.0 12.0 0.00 0.00 0.00 39 1013.6
20260902043029 85 360 6.0 13.0 0.00 0.00 0.00 39 1013.6
20260902042514 86 360 5.0 14.0 0.00 0.00 0.00 39 1013.6
20260902042014 86 200 6.0 14.0 0.00 0.00 0.00 38 1013.6
20260902041524 86 360 7.0 14.0 0.00 0.00 0.00 38 1013.5
20260902041016 86 142 7.0 13.0 0.00 0.00 0.00 38 1013.5
20260902040503 86 192 7.0 13.0 0.00 0.00 0.00 38 1013.6
20260902040006 87 165 6.0 13.0 0.00 0.00 0.00 38 1013.6
20260902035505 87 360 5.0 14.0 0.00 0.00 0.00 37 1013.5
20260902035007 87 360 7.0 14.0 0.00 0.00 0.00 37 1013.6
20260902034517 87 195 7.0 14.0 0.00 0.00 0.00 37 1013.6
20260902034010 87 360 7.0 12.0 0.00 0.00 0.00 37 1013.4
20260902033510 87 360 6.0 14.0 0.00 0.00 0.00 37 1013.4
20260902033018 87 182 7.0 14.0 0.00 0.00 0.00 37 1013.3
20260902032512 87 143 5.0 14.0 0.00 0.00 0.00 37 1013.2
20260902032016 88 152 8.0 14.0 0.00 0.00 0.00 37 1013.3
20260902031529 88 161 7.0 14.0 0.00 0.00 0.00 37 1013.3
20260902031019 88 360 7.0 14.0 0.00 0.00 0.00 37 1013.3
20260902030503 88 197 8.0 15.0 0.00 0.00 0.00 37 1013.1
20260902030008 88 360 7.0 15.0 0.00 0.00 0.00 37 1013.1
20260902025504 88 136 7.0 15.0 0.00 0.00 0.00 37 1013.1
20260902025008 88 192 6.0 17.0 0.00 0.00 0.00 37 1013.0
20260902024515 88 360 6.0 17.0 0.00 0.00 0.00 37 1013.0
20260902024009 88 360 7.0 14.0 0.00 0.00 0.00 37 1012.9
20260902023512 88 173 8.0 14.0 0.00 0.00 0.00 38 1012.8
20260902023023 88 360 9.0 13.0 0.00 0.00 0.00 38 1012.7
20260902022514 88 192 6.0 12.0 0.00 0.00 0.00 38 1012.7
20260902022016 89 360 7.0 12.0 0.00 0.00 0.00 38 1012.6
20260902021530 89 163 7.0 11.0 0.00 0.00 0.00 38 1012.5
20260902021009 89 360 6.0 12.0 0.00 0.00 0.00 38 1012.4
20260902020504 89 140 5.0 12.0 0.00 0.00 0.00 38 1012.4
20260902020009 89 161 7.0 11.0 0.00 0.00 0.00 38 1012.4
20260902015508 90 142 7.0 11.0 0.00 0.00 0.00 38 1012.3
20260902015008 90 160 6.0 10.0 0.00 0.00 0.00 38 1012.3
20260902014516 90 171 4.0 8.0 0.00 0.00 0.00 37 1012.2
20260902014014 90 165 5.0 8.0 0.00 0.00 0.00 37 1012.2
20260902013513 90 153 4.0 8.0 0.00 0.00 0.00 37 1012.2
20260902013027 91 181 5.0 8.0 0.00 0.00 0.00 37 1012.2
20260902012515 91 167 3.0 8.0 0.00 0.00 0.00 37 1012.2
20260902012017 91 132 5.0 7.0 0.00 0.00 0.00 37 1012.1
20260902011505 91 148 3.0 7.0 0.00 0.00 0.00 37 1012.0
20260902011010 92 178 3.0 7.0 0.00 0.00 0.00 37 1012.0
20260902010509 92 163 3.0 7.0 0.00 0.00 0.00 36 1012.0
20260902010012 92 157 4.0 10.0 0.00 0.00 0.00 35 1012.1
20260902005510 93 360 4.0 10.0 0.00 0.00 0.00 35 1012.1
20260902005010 93 173 3.0 8.0 0.00 0.00 0.00 34 1012.2
20260902004523 94 178 4.0 10.0 0.00 0.00 0.00 34 1012.1
20260902004016 94 169 4.0 9.0 0.00 0.00 0.00 33 1012.2
20260902003515 94 190 5.0 11.0 0.00 0.00 0.00 33 1012.2
20260902003029 95 179 4.0 11.0 0.00 0.00 0.00 33 1012.1
20260902002513 95 157 5.0 10.0 0.00 0.00 0.00 33 1012.0
20260902002022 95 124 6.0 10.0 0.00 0.00 0.00 32 1012.0
20260902001508 96 178 4.0 10.0 0.00 0.00 0.00 32 1011.9
20260902001007 96 190 5.0 10.0 0.00 0.00 0.00 31 1012.0
20260902000512 96 181 5.0 13.0 0.00 0.00 0.00 31 1012.1
20260902000018 97 360 6.0 14.0 0.00 0.00 0.00 30 1012.1
20260901235511 97 205 6.0 14.0 0.00 0.00 0.00 30 1012.2
20260901235017 97 196 6.0 13.0 0.00 0.00 0.00 31 1012.2
20260901234526 97 160 8.0 13.0 0.00 0.00 0.00 30 1012.2
20260901234013 97 198 6.0 10.0 0.00 0.00 0.00 31 1012.1
20260901233514 97 196 7.0 11.0 0.00 0.00 0.00 30 1012.1
20260901233031 97 360 6.0 11.0 0.00 0.00 0.00 31 1012.2
20260901232516 97 360 5.0 10.0 0.00 0.00 0.00 31 1012.2
20260901232008 97 186 5.0 12.0 0.00 0.00 0.00 31 1012.2
20260901231515 97 360 5.0 12.0 0.00 0.00 0.00 30 1012.3
20260901231007 97 237 5.0 11.0 0.00 0.00 0.00 30 1012.4
20260901230511 97 238 5.0 11.0 0.00 0.00 0.00 30 1012.5
20260901230019 98 199 4.0 11.0 0.00 0.00 0.00 30 1012.5
20260901225513 98 360 4.0 10.0 0.00 0.00 0.00 29 1012.5
20260901225015 98 169 5.0 11.0 0.00 0.00 0.00 29 1012.5
20260901224534 98 209 6.0 16.0 0.00 0.00 0.00 29 1012.5
20260901224016 98 161 6.0 16.0 0.00 0.00 0.00 29 1012.5
20260901223514 98 213 7.0 16.0 0.00 0.00 0.00 29 1012.5
20260901223034 98 205 4.0 14.0 0.00 0.00 0.00 29 1012.4
20260901222507 97 191 6.0 14.0 0.00 0.00 0.00 29 1012.5
20260901222009 98 164 6.0 14.0 0.00 0.00 0.00 28 1012.5
20260901221516 98 192 4.0 11.0 0.00 0.00 0.00 28 1012.6
20260901221016 98 171 5.0 12.0 0.00 0.00 0.00 29 1012.6
20260901220512 98 157 3.0 13.0 0.00 0.00 0.00 28 1012.7
20260901220026 98 204 6.0 13.0 0.00 0.00 0.00 28 1012.7
20260901215516 99 360 7.0 17.0 0.00 0.00 0.00 27 1012.8
20260901215016 99 168 6.0 17.0 0.00 0.00 0.00 27 1012.9
20260901214529 99 228 6.0 17.0 0.00 0.00 0.00 27 1013.0
20260901214018 99 149 5.0 10.0 0.00 0.00 0.00 29 1013.1
20260901213518 98 360 5.0 13.0 0.00 0.00 0.00 28 1013.1
20260901213042 98 190 4.0 17.0 0.00 0.00 0.00 28 1013.1
20260901212509 99 221 8.0 17.0 0.00 0.00 0.00 27 1013.2
20260901212011 99 360 7.0 15.0 0.00 0.00 0.00 28 1013.2
20260901211518 98 172 7.0 13.0 0.00 0.00 0.00 28 1013.2
20260901211012 99 122 8.0 14.0 0.00 0.00 0.00 28 1013.1
20260901210512 99 360 8.0 18.0 0.00 0.00 0.00 28 1013.2
20260901210030 99 267 6.0 18.0 0.00 0.00 0.00 27 1013.3
20260901205514 99 225 7.0 22.0 0.00 0.00 0.00 27 1013.3
20260901205018 99 360 11.0 22.0 0.00 0.00 0.00 27 1013.5
20260901204505 100 176 6.0 19.0 0.00 0.00 0.00 27 1013.4
20260901204007 100 164 6.0 19.0 0.00 0.00 0.00 25 1013.4
20260901203509 101 256 5.0 13.0 0.00 0.00 0.00 26 1013.5
20260901203018 101 199 4.0 13.0 0.00 0.00 0.00 27 1013.6
20260901202510 100 224 4.0 15.0 0.00 0.00 0.00 27 1013.7
20260901202010 100 173 7.0 15.0 0.00 0.00 0.00 26 1013.9
20260901201513 100 360 7.0 14.0 0.00 0.00 0.00 26 1013.9
20260901201012 100 158 4.0 15.0 0.00 0.00 0.00 26 1014.0
20260901200508 100 207 4.0 15.0 0.00 0.00 0.00 26 1014.1
20260901200013 100 186 4.0 11.0 0.00 0.00 0.00 27 1014.2
20260901195508 100 197 5.0 13.0 0.00 0.00 0.00 28 1014.2
20260901195004 100 360 7.0 19.0 0.00 0.00 0.00 29 1014.2
20260901194508 100 181 5.0 19.0 0.00 0.00 0.00 28 1014.3
20260901194011 100 239 8.0 14.0 0.00 0.00 0.00 28 1014.4
20260901193511 100 360 7.0 12.0 0.00 0.00 0.00 29 1014.4
20260901193016 100 247 4.0 16.0 0.00 0.00 0.00 29 1014.4
20260901192509 99 229 7.0 16.0 0.00 0.00 0.00 29 1014.4
20260901192011 99 247 7.0 12.0 0.00 0.00 0.00 29 1014.4
20260901191515 99 238 7.0 15.0 0.00 0.00 0.00 30 1014.4
20260901191012 98 215 9.0 15.0 0.00 0.00 0.00 29 1014.6
20260901190513 98 215 8.0 15.0 0.00 0.00 0.00 28 1014.7
20260901190016 99 238 7.0 15.0 0.00 0.00 0.00 28 1014.7
20260901185506 99 202 6.0 18.0 0.00 0.00 0.00 29 1014.7
20260901185007 98 254 7.0 18.0 0.00 0.00 0.00 29 1014.9
20260901184527 98 180 6.0 24.0 0.00 0.00 0.00 29 1014.9
20260901184011 98 360 8.0 24.0 0.00 0.00 0.00 29 1015.0
20260901183513 98 223 10.0 19.0 0.00 0.00 0.00 29 1014.9
20260901183017 98 189 8.0 18.0 0.00 0.00 0.00 30 1015.0
20260901182511 98 202 6.0 18.0 0.00 0.00 0.00 30 1015.1
20260901182012 98 186 8.0 18.0 0.00 0.00 0.00 30 1015.1
20260901181526 98 180 8.0 18.0 0.00 0.00 0.00 31 1015.2
20260901181011 98 199 10.0 18.0 0.00 0.00 0.00 29 1015.3
20260901180512 98 219 9.0 20.0 0.00 0.00 0.00 31 1015.4
20260901180008 98 201 8.0 20.0 0.00 0.00 0.00 31 1015.4
20260901175510 98 257 9.0 19.0 0.00 0.00 0.00 31 1015.4
20260901175008 98 203 13.0 19.0 0.00 0.00 0.00 29 1015.6
20260901174540 97 210 7.0 17.0 0.00 0.00 0.00 33 1015.5
20260901174016 97 254 8.0 17.0 0.00 0.00 0.00 33 1015.6
20260901173511 97 228 8.0 16.0 0.00 0.00 0.00 31 1015.7
20260901173019 97 229 8.0 15.0 0.00 0.00 0.00 32 1015.7
20260901172513 97 216 6.0 17.0 0.00 0.00 0.00 32 1015.8
20260901172012 97 221 6.0 17.0 0.00 0.00 0.00 33 1015.8
20260901171524 97 216 5.0 17.0 0.00 0.00 0.00 34 1016.0
20260901171013 96 202 5.0 15.0 0.00 0.00 0.00 33 1016.0
20260901170514 96 197 7.0 16.0 0.00 0.00 0.00 34 1016.0
20260901170011 96 289 7.0 16.0 0.00 0.00 0.00 34 1016.0
20260901165510 96 197 4.0 14.0 0.00 0.00 0.00 34 1016.0
20260901165010 96 175 4.0 13.0 0.00 0.00 0.00 35 1016.0
20260901164524 96 222 4.0 14.0 0.00 0.00 0.00 36 1016.0
20260901164014 95 227 5.0 15.0 0.00 0.00 0.00 36 1016.0
20260901163511 95 221 7.0 15.0 0.00 0.00 0.00 35 1016.0
20260901163023 94 250 6.0 14.0 0.00 0.00 0.00 35 1016.0
20260901162515 94 229 5.0 17.0 0.00 0.00 0.00 36 1016.0
20260901162015 93 215 8.0 16.0 0.00 0.00 0.00 37 1016.0
20260901161526 93 261 7.0 18.0 0.00 0.00 0.00 38 1016.0
20260901161014 92 207 8.0 18.0 0.00 0.00 0.00 38 1016.0
20260901160508 92 198 8.0 16.0 0.00 0.00 0.00 38 1016.0
20260901160023 92 192 8.0 16.0 0.00 0.00 0.00 39 1016.0
20260901155511 91 360 5.0 14.0 0.00 0.00 0.00 39 1016.0
20260901155013 91 220 6.0 13.0 0.00 0.00 0.00 39 1015.9
20260901154523 90 212 4.0 13.0 0.00 0.00 0.00 40 1015.9
20260901154014 89 140 6.0 12.0 0.00 0.00 0.00 40 1015.9
20260901153514 89 202 4.0 12.0 0.00 0.00 0.00 41 1016.0
20260901153023 88 197 6.0 13.0 0.00 0.00 0.00 41 1015.9
20260901152513 87 190 7.0 13.0 0.00 0.00 0.00 42 1016.0
20260901152014 87 256 5.0 13.0 0.00 0.00 0.00 43 1016.0
20260901151527 86 213 3.0 12.0 0.00 0.00 0.00 44 1016.0
20260901151014 85 186 7.0 12.0 0.00 0.00 0.00 45 1016.0
20260901150511 85 198 5.0 13.0 0.00 0.00 0.00 45 1016.0
20260901150022 84 300 6.0 14.0 0.00 0.00 0.00 46 1015.9
20260901145511 83 226 4.0 14.0 0.00 0.00 0.00 47 1016.0
20260901145019 82 271 5.0 12.0 0.00 0.00 0.00 48 1016.0
20260901144523 82 360 5.0 11.0 0.00 0.00 0.00 49 1015.9
20260901144011 81 219 6.0 11.0 0.00 0.00 0.00 49 1016.1
20260901143514 81 344 3.0 11.0 0.00 0.00 0.00 50 1016.1
20260901143026 80 195 6.0 11.0 0.00 0.00 0.00 51 1016.0
20260901142515 80 360 6.0 11.0 0.00 0.00 0.00 51 1016.3
20260901142013 79 176 5.0 10.0 0.00 0.00 0.00 52 1016.2
20260901141528 78 229 6.0 10.0 0.00 0.00 0.00 53 1016.3
20260901141012 78 188 4.0 9.0 0.00 0.00 0.00 54 1016.2
20260901140510 77 200 4.0 9.0 0.00 0.00 0.00 54 1016.3
20260901140027 77 201 6.0 13.0 0.00 0.00 0.00 55 1016.3
20260901135513 76 190 4.0 13.0 0.00 0.00 0.00 56 1016.3
20260901135018 76 171 6.0 13.0 0.00 0.00 0.00 56 1016.3
20260901134526 75 208 4.0 7.0 0.00 0.00 0.00 57 1016.4
20260901134018 75 227 3.0 8.0 0.00 0.00 0.00 58 1016.4
20260901133515 74 188 3.0 8.0 0.00 0.00 0.00 59 1016.3
20260901133027 74 190 5.0 8.0 0.00 0.00 0.00 59 1016.4
20260901132515 74 196 2.0 10.0 0.00 0.00 0.00 60 1016.4
20260901132015 73 196 5.0 10.0 0.00 0.00 0.00 60 1016.4
20260901131516 73 197 3.0 7.0 0.00 0.00 0.00 61 1016.4
20260901131012 73 199 2.0 7.0 0.00 0.00 0.00 62 1016.4
20260901130517 73 182 1.0 5.0 0.00 0.00 0.00 62 1016.4
20260901130029 72 203 3.0 8.0 0.00 0.00 0.00 62 1016.4
20260901125516 72 167 4.0 8.0 0.00 0.00 0.00 62 1016.3
20260901125014 72 194 2.0 3.0 0.00 0.00 0.00 63 1016.3
20260901124533 72 236 0.0 5.0 0.00 0.00 0.00 63 1016.3
20260901124016 72 203 1.0 7.0 0.00 0.00 0.00 63 1016.3
20260901123513 72 192 2.0 7.0 0.00 0.00 0.00 63 1016.3
20260901123043 72 171 3.0 7.0 0.00 0.00 0.00 63 1016.2
20260901122515 71 169 3.0 6.0 0.00 0.00 0.00 64 1016.1
20260901122016 71 202 0.0 4.0 0.00 0.00 0.00 64 1016.2
20260901121523 71 257 0.0 4.0 0.00 0.00 0.00 64 1016.2
20260901121014 71 184 2.0 4.0 0.00 0.00 0.00 64 1016.1
20260901120512 71 239 0.0 6.0 0.00 0.00 0.00 64 1016.2
20260901120043 71 277 1.0 6.0 0.00 0.00 0.00 64 1016.2
20260901115515 71 293 2.0 4.0 0.00 0.00 0.00 64 1016.3
20260901115016 71 223 1.0 4.0 0.00 0.00 0.00 63 1015.9
20260901114509 72 188 2.0 7.0 0.00 0.00 0.00 62 1015.7
20260901114007 72 142 3.0 7.0 0.00 0.00 0.00 62 1015.6
20260901113507 72 159 1.0 5.0 0.00 0.00 0.00 62 1015.6
20260901113017 72 193 2.0 5.0 0.00 0.00 0.00 61 1015.5
20260901112511 72 179 1.0 6.0 0.00 0.00 0.00 61 1015.6
20260901112016 72 185 3.0 6.0 0.00 0.00 0.00 61 1015.6
20260901111530 73 202 2.0 6.0 0.00 0.00 0.00 61 1015.6
20260901111016 73 205 1.0 4.0 0.00 0.00 0.00 61 1015.6
20260901110504 73 186 2.0 6.0 0.00 0.00 0.00 60 1015.6
20260901110008 74 178 2.0 6.0 0.00 0.00 0.00 59 1015.5
20260901105508 74 192 2.0 7.0 0.00 0.00 0.00 59 1015.5
20260901105007 74 193 3.0 7.0 0.00 0.00 0.00 58 1015.5
20260901104514 74 180 2.0 6.0 0.00 0.00 0.00 58 1015.5
20260901104011 74 181 2.0 7.0 0.00 0.00 0.00 58 1015.5
20260901103510 74 185 3.0 7.0 0.00 0.00 0.00 58 1015.4
20260901103018 74 185 4.0 6.0 0.00 0.00 0.00 58 1015.3
20260901102514 74 190 3.0 4.0 0.00 0.00 0.00 58 1015.5
20260901102014 74 208 0.0 2.0 0.00 0.00 0.00 58 1015.5
20260901101532 74 203 0.0 2.0 0.00 0.00 0.00 57 1015.6
20260901101015 74 196 1.0 2.0 0.00 0.00 0.00 57 1015.6
20260901100504 75 226 0.0 3.0 0.00 0.00 0.00 57 1015.7
20260901100009 75 259 1.0 3.0 0.00 0.00 0.00 56 1015.7